DW2485 Weather Reports


time (UTC)temp
C
wind
direction
speed
KPH
gust
KPH
rain 1hr
cm
rain 24hr
cm
rain mn
cm
humidity
%
barometer
mb
20260504185505 27 253 19.3 32.2 0.00 0.00 0.00 100 1001.0
20260504184005 28 256 20.9 32.2 0.00 0.00 0.00 100 1001.1
20260504183505 28 225 22.5 38.6 0.00 0.00 0.00 100 1001.0
20260504183004 28 248 20.9 37.0 0.00 0.00 0.00 100 1001.0
20260504182005 27 269 20.9 35.4 0.00 0.00 0.00 100 1001.1
20260504175505 27 264 16.1 32.2 0.00 0.00 0.00 100 1001.0
20260504174005 26 241 20.9 29.0 0.00 0.00 0.00 100 1001.1
20260504173004 27 250 16.1 25.7 0.00 0.00 0.00 100 1001.5
20260504172505 26 218 12.9 25.7 0.00 0.00 0.00 100 1001.4
20260504170504 26 243 19.3 25.7 0.00 0.00 0.00 100 1001.8
20260504140505 17 206 8.0 12.9 0.00 0.00 0.00 100 1004.2
20260504081504 7 177 0.0 3.2 0.00 0.03 0.00 100 1006.8
20260504081004 7 177 1.6 1.6 0.00 0.03 0.00 100 1006.8
20260504050504 11 186 0.0 1.6 0.00 0.03 0.00 100 1008.6
20260504045504 11 186 3.2 4.8 0.00 0.03 0.03 100 1008.7
20260504042503 12 217 3.2 3.2 0.00 0.03 0.03 100 1008.8
20260504042004 12 217 1.6 3.2 0.00 0.03 0.03 100 1008.7
20260504040506 13 251 1.6 1.6 0.00 0.03 0.03 100 1008.8
20260504040006 13 251 3.2 4.8 0.00 0.03 0.03 100 1008.9
20260504035506 13 223 3.2 3.2 0.00 0.03 0.03 100 1009.0
20260504035006 13 284 1.6 3.2 0.00 0.03 0.03 100 1009.1
20260504034006 13 277 1.6 3.2 0.00 0.03 0.03 100 1009.1
20260504032005 15 220 4.8 9.7 0.00 0.03 0.03 100 1009.2
20260504031006 16 282 3.2 4.8 0.00 0.03 0.03 100 1009.0
20260504030506 16 280 3.2 3.2 0.00 0.03 0.03 100 1009.0
20260504030005 16 288 1.6 3.2 0.00 0.03 0.03 100 1008.9
20260504024505 17 291 3.2 4.8 0.00 0.03 0.03 100 1008.7
20260504024005 17 285 3.2 3.2 0.00 0.03 0.03 100 1008.7
20260504023505 17 269 4.8 4.8 0.00 0.03 0.03 100 1008.8
20260504022505 17 301 4.8 8.0 0.00 0.03 0.03 100 1008.6
20260504021505 17 306 6.4 11.3 0.00 0.03 0.03 100 1008.5
20260504015505 18 274 8.0 11.3 0.00 0.03 0.03 100 1008.4
20260504015005 18 277 9.7 11.3 0.00 0.03 0.03 100 1008.3
20260504014505 18 272 8.0 11.3 0.00 0.03 0.03 100 1008.4
20260504014005 19 267 8.0 11.3 0.00 0.03 0.03 100 1008.3
20260504012505 20 265 8.0 11.3 0.00 0.03 0.03 100 1008.1
20260504011506 20 262 9.7 12.9 0.00 0.03 0.03 100 1008.0
20260504011005 20 266 11.3 14.5 0.00 0.03 0.03 100 1007.9
20260504010505 21 271 11.3 14.5 0.00 0.03 0.03 100 1007.8
20260504010005 21 262 11.3 14.5 0.00 0.03 0.03 100 1007.8
20260504005505 21 273 12.9 16.1 0.00 0.03 0.03 100 1007.8
20260504004505 21 266 11.3 16.1 0.00 0.03 0.03 100 1007.8
20260504004005 22 258 9.7 14.5 0.00 0.03 0.03 100 1007.6
20260504001505 22 277 11.3 19.3 0.00 0.03 0.03 100 1007.5
20260504001005 22 284 14.5 20.9 0.00 0.03 0.03 100 1007.7
20260504000506 23 293 16.1 25.7 0.00 0.03 0.03 100 1007.6
20260504000006 23 280 17.7 25.7 0.00 0.03 0.03 100 1007.6
20260503235505 23 293 20.9 27.4 0.00 0.03 0.03 100 1007.4
20260503233505 23 292 22.5 32.2 0.00 0.03 0.03 100 1007.6
20260503232505 23 267 22.5 29.0 0.00 0.03 0.03 100 1007.5
20260503232005 23 291 19.3 32.2 0.00 0.03 0.03 100 1007.5
20260503231505 23 292 25.7 35.4 0.00 0.03 0.03 100 1007.5
20260503231005 24 275 16.1 25.7 0.00 0.03 0.03 100 1007.4
20260503223006 24 261 17.7 27.4 0.00 0.03 0.03 100 1007.3
20260503222505 24 253 20.9 32.2 0.00 0.03 0.03 100 1007.2
20260503221505 25 294 25.7 33.8 0.00 0.03 0.03 100 1007.2
20260503221005 25 253 17.7 29.0 0.00 0.03 0.03 100 1007.3
20260503220005 24 283 14.5 22.5 0.00 0.03 0.03 100 1007.2
20260503215505 24 251 19.3 32.2 0.00 0.03 0.03 100 1007.1
20260503215005 25 249 19.3 32.2 0.00 0.03 0.03 100 1007.1
20260503213506 25 261 16.1 27.4 0.00 0.03 0.03 100 1007.2
20260503211505 25 261 22.5 37.0 0.00 0.03 0.03 100 1007.3
20260503204505 25 294 20.9 41.8 0.00 0.03 0.03 100 1007.6
20260503200505 24 233 16.1 27.4 0.00 0.03 0.03 100 1008.1
20260503195005 23 261 12.9 24.1 0.00 0.03 0.03 100 1008.3
20260503194004 23 241 16.1 32.2 0.00 0.03 0.03 100 1008.7
20260503193505 23 239 16.1 24.1 0.00 0.03 0.03 100 1008.6